THOR ABLESTAR DEB, 2620

Orbit data source: Space-Track

THOR ABLESTAR DEB, 2620 is space debris in LEO originally from a launch on Thu, 05 Dec 1963 UTC launched from the Air Force Western Test Range (AFWTR). Debris objects in space refer to the collection of defunct objects orbiting the Earth. Examples of debris include non-operational satellites, rocket bodies, and fragments generated from explosions, collisions, or faulty payload assembly.

Loading next visibility...
Identifier
2620, 1963-049H
Orbit
LEO
Country
Flag of USUS
Related business
Manufacturer
Unknown
Mission
Spacecraft
Bus & Motor
Unknown
Mass
Unknown
Launch date (UTC)
1963-12-05 (62 years ago)
Launch vehicle
Unknown
Launch site
Air Force Western Test Range (AFWTR)
Object type
Payload
Rocket body
Debris
Shape & HBR
Unknown shape, 0.1 m
Radar Cross Section
Small (<0.1 m²)

Expand to show TLE details & history
Last TLE update: 17 hours ago

TLE from 17 hours ago
0 THOR ABLESTAR DEB
1 02620U 63049H   26037.06834090  .00000285  00000-0  37075-3 0  9990
2 02620  89.9122  73.6288 0017107 118.8855 270.1827 13.59690130 72574
Epoch: 2026-02-06T01:38Z
TLE epoch observation values (Epoch: 2026-02-06T01:38:24.653Z)
Latitude
28.91539°
Longitude
-87.1372°
Altitude
1,040.45 km
Speed
7.334 km/s
True Right ascension
04h 54m 42s
True Declination
28° 46' 32"
Sunlit
Object was in daylight at epoch
Visualization orbit readout
Latitude
Unknown
Longitude
Unknown
Altitude
Unknown
Speed
Unknown
Apparent Right ascension
Unknown
Apparent Declination
Unknown
Sunlit
N/A
Visualization observer readout
Local Sidereal Time
20:58:57
Azimuth
Unknown
Elevation
Unknown
Doppler factor
Unknown
Orbital elements
Apogee altitude
1,046.534 km
Perigee altitude
1,021.174 km
Semi-major axis
7,411.991 km
Eccentricity
0.00171
Inclination
89.9122°
RAAN
73.6288°
Arg. of periapsis
118.8855°
True anomaly
269.98667°
Mean anomaly
270.1827°
Eccentric anomaly
270.08468°
Mean motion
3.40127 °/min
Orbital period
105.84 mins
BSTAR
0.00037075
Loading maneuver chart data...
Computing Atmospheric mass density...
Loading historical data...
Loading historical data...
Loading historical data...
Loading historical data...
Loading historical data...
Loading historical data...
Loading historical data...

Documentation

Showing up to 5 results
|